Weather Roundup
Issued by NWS

Home | Current Version | Previous Version | Text Only | Print | Product List | Glossary On
Versions: 1 2 3 4 5 6 7 8 9 10 11 12 13 14 15 16 17 18 19 20 21 22 23 24 25 26 27 28 29 30 31 32 33 34 35 36 37 38 39 40 41 42 43 44 45 46 47 48 49 50
250
NZUS93 KARX 220710
HRRWXR

CURRENT HOURLY OBSERVATIONS ACROSS
MUCH OF THE UPPER MISSISSIPPI VALLEY
NATIONAL WEATHER SERVICE LA CROSSE WI
100 AM CST THU FEB 22 2018


...SOUTHEAST MINNESOTA...


CITY           SKY/WX    TMP DP  RH WIND       PRES   REMARKS
ROCHESTER      FAIR      14  10  84 E6        30.58S WCI   5
ROCHESTER/MAYO FAIR      15   9  75 E3        30.60S
WINONA         FAIR      16  12  86 CALM      30.63S
AUSTIN         FAIR      18  14  86 CALM      30.57F
ALBERT LEA     FAIR      16  10  79 CALM      30.55F
DODGE CENTER   FAIR      10   7  85 E5        30.57F WCI   2
PRESTON        CLOUDY    17  12  82 E3        30.58F
OWATONNA       FAIR       9   5  85 CALM      30.58S
FARIBAULT      FAIR       5   1  85 CALM      30.59S
$$

...ELSEWHERE IN MINNESOTA...


CITY           SKY/WX    TMP DP  RH WIND       PRES   REMARKS
MINNEAPOLIS    MOCLDY     9   5  84 NE5       30.62S WCI   1
INTNL FALLS    FAIR      -6  -9  86 CALM      30.54S
DULUTH         FAIR       8  -2  63 W7        30.57S WCI  -3
RED WING       FAIR       5   0  78 CALM      30.62F
REDWOOD FALLS  FAIR       5   1  83 E3        30.56F
MANKATO        FAIR       8   4  83 E6        30.59F WCI  -2
WORTHINGTON    MOCLDY    13   8  81 SE7       30.50F WCI   3
FAIRMONT       FAIR       9   4  80 E6        30.56F WCI  -1
$$

...SOUTHWEST WISCONSIN...


CITY           SKY/WX    TMP DP  RH WIND       PRES   REMARKS
LA CROSSE      FAIR      18  14  84 NW5       30.64F WCI  11
PRAIRIE DU CHI CLOUDY    24  13  62 NE5       30.61F WCI  18
BOSCOBEL       CLOUDY    24  15  68 VRB3      30.62F
LONE ROCK      CLOUDY    24  15  68 E6        30.62F WCI  17
PLATTEVILLE    CLOUDY    24  16  70 NE12      30.58F WCI  13
FORT MC COY    FAIR      15  13  93 CALM      30.64F
CAMP DOUGLAS   CLOUDY    15  14  93 CALM      30.62F
MAUSTON-NEW LI FAIR      19  14  81 NE3       30.61F
VIROQUA        PTSUNNY   19  17  90 NE6       30.58F WCI  11
WIS DELLS      CLOUDY    20  15  80 NE6       30.61F WCI  12
$$

...ELSEWHERE IN WISCONSIN...


CITY           SKY/WX    TMP DP  RH WIND       PRES   REMARKS
MILWAUKEE      CLOUDY    28  19  69 NE8       30.62S WCI  20
MADISON        MOCLDY    21  14  74 NE6       30.62S WCI  13
GREEN BAY      FAIR      19  10  68 CALM      30.67R
EAU CLAIRE     FAIR       3   0  87 E3        30.62F
BLACK RVR FLS  FAIR       8   4  83 CALM      30.63F
MEDFORD        FAIR       0  -3  85 E5        30.59F WCI -10
WAUSAU         FAIR       6   3  87 N3        30.61F
WIS RAPIDS     FAIR      14   8  77 CALM      30.63F
MARSHFIELD     FAIR      11   4  73 NE6       30.59F WCI   1
RICE LAKE      FAIR      -4  -8  84 CALM      30.64R
$$

...NORTHEAST IOWA...


CITY           SKY/WX    TMP DP  RH WIND       PRES   REMARKS
WATERLOO       CLOUDY    23  16  74 NE9       30.56F WCI  13
DUBUQUE        MOCLDY    23  12  62 NE13      30.56S WCI  11
DECORAH        CLOUDY    21  16  79 E7        30.57F WCI  13
MASON CITY     CLOUDY    21  14  74 E12       30.56F WCI   9
CHARLES CITY   CLOUDY    23  18  80 E10       30.56F WCI  12
OELWEIN        CLOUDY    23  19  86 NE9       30.56F WCI  13
$$

...ELSEWHERE IN IOWA...


CITY           SKY/WX    TMP DP  RH WIND       PRES   REMARKS
DES MOINES     CLOUDY    25  15  66 E7        30.53S WCI  17
IOWA CITY      FAIR      27  16  63 NE9       30.56F WCI  18
FORT DODGE     CLOUDY    21  16  81 E10       30.53F WCI  10
MARSHALLTOWN   CLOUDY    23  16  74 NE10      30.52F WCI  12
CEDAR RAPIDS   MOCLDY    25  15  66 NE10      30.53F WCI  15
$$

...NORTHERN ILLINOIS...


CITY           SKY/WX    TMP DP  RH WIND       PRES   REMARKS
CHICAGO-OHARE  CLOUDY    30  22  72 NE13      30.56F WCI  20
CHICAGO-MIDWAY CLOUDY    32  25  75 NE15      30.56F WCI  22
MOLINE         FAIR      27  18  69 NE10      30.55S WCI  17
ROCKFORD       CLOUDY    25  16  68 NE9       30.60S WCI  15
PEORIA         CLOUDY    29  24  82 NE13      30.52R WCI  19
$$

NOTE: "FAIR" INDICATES FEW OR NO CLOUDS BELOW 12,000 FEET WITH NO
SIGNIFICANT WEATHER AND/OR OBSTRUCTIONS TO VISIBILITY. WIND
SPEEDS ARE IN MILES-PER-HOUR.




USA.gov is the U.S. government's official web portal to all federal, state and local government web resources and services.